TimeCDT,TemperatureF,Dew PointF,Humidity,Sea Level PressureIn,VisibilityMPH,Wind Direction,Wind SpeedMPH,Gust SpeedMPH,PrecipitationIn,Events,Conditions,WindDirDegrees,DateUTC
12:15 AM,24.8,21.2,86,30.01,10.0,NNW,21.9,-,0.00,,Unknown,340,2013-03-10 06:15:00
12:35 AM,23.0,21.2,93,30.01,9.0,NNW,20.7,29.9,0.00,,Overcast,340,2013-03-10 06:35:00
12:55 AM,23.0,21.2,93,30.01,9.0,North,25.3,28.8,0.00,,Overcast,350,2013-03-10 06:55:00
1:15 AM,23.0,21.2,93,30.02,7.0,North,23.0,-,0.00,,Overcast,350,2013-03-10 07:15:00
1:35 AM,23.0,21.2,93,30.03,10.0,North,19.6,-,0.00,,Unknown,350,2013-03-10 07:35:00
1:55 AM,23.0,21.2,93,30.04,10.0,North,18.4,-,0.00,,Unknown,350,2013-03-10 07:55:00
3:15 AM,23.0,21.2,93,30.04,10.0,North,18.4,-,0.00,,Overcast,350,2013-03-10 08:15:00
3:35 AM,23.0,21.2,93,30.05,10.0,North,18.4,-,0.00,,Overcast,350,2013-03-10 08:35:00
3:55 AM,23.0,21.2,93,30.05,10.0,North,18.4,23.0,0.00,,Overcast,350,2013-03-10 08:55:00
4:15 AM,23.0,21.2,93,30.05,10.0,North,16.1,21.9,0.00,,Overcast,350,2013-03-10 09:15:00
4:35 AM,23.0,21.2,93,30.04,10.0,North,17.3,-,0.00,,Unknown,350,2013-03-10 09:35:00
4:55 AM,23.0,21.2,93,30.05,10.0,NNW,23.0,-,0.00,,Unknown,340,2013-03-10 09:55:00
5:15 AM,23.0,19.4,86,30.06,10.0,NNW,21.9,25.3,0.00,,Overcast,340,2013-03-10 10:15:00
5:55 AM,23.0,19.4,86,30.08,10.0,NNW,18.4,25.3,0.00,,Unknown,340,2013-03-10 10:55:00
6:15 AM,21.2,19.4,93,30.10,9.0,NNW,18.4,-,0.00,,Unknown,340,2013-03-10 11:15:00
7:35 AM,21.2,17.6,86,30.14,5.0,NNW,19.6,24.2,0.00,,Overcast,340,2013-03-10 12:35:00
7:55 AM,21.2,17.6,86,30.15,8.0,North,21.9,28.8,0.00,,Unknown,350,2013-03-10 12:55:00
8:15 AM,19.4,17.6,93,30.16,9.0,North,19.6,25.3,0.00,,Unknown,350,2013-03-10 13:15:00
8:35 AM,19.4,15.8,86,30.16,8.0,NNW,19.6,25.3,0.00,,Overcast,340,2013-03-10 13:35:00
8:55 AM,19.4,15.8,86,30.15,4.0,NNW,20.7,-,0.00,,Unknown,340,2013-03-10 13:55:00
9:15 AM,17.6,14.0,86,30.16,8.0,NNW,17.3,-,0.00,,Unknown,330,2013-03-10 14:15:00
9:35 AM,17.6,14.0,86,30.16,7.0,NNW,19.6,-,0.00,,Unknown,330,2013-03-10 14:35:00
9:55 AM,17.6,14.0,86,30.17,10.0,NNW,16.1,-,0.00,,Overcast,340,2013-03-10 14:55:00
10:15 AM,19.4,14.0,80,30.18,10.0,North,18.4,-,0.00,,Unknown,350,2013-03-10 15:15:00
10:35 AM,19.4,14.0,80,30.18,9.0,North,19.6,25.3,0.00,,Unknown,350,2013-03-10 15:35:00
10:55 AM,19.4,15.8,86,30.19,10.0,North,18.4,-,0.00,,Unknown,350,2013-03-10 15:55:00
11:15 AM,19.4,17.6,93,30.18,10.0,North,16.1,-,0.00,,Unknown,350,2013-03-10 16:15:00
11:35 AM,19.4,17.6,93,30.17,10.0,North,19.6,-,0.00,,Unknown,350,2013-03-10 16:35:00
11:55 AM,21.2,17.6,86,30.17,10.0,North,19.6,-,0.00,,Unknown,350,2013-03-10 16:55:00
12:15 PM,23.0,17.6,80,30.17,10.0,North,19.6,23.0,0.00,,Overcast,360,2013-03-10 17:15:00
12:35 PM,23.0,19.4,86,30.16,10.0,North,19.6,-,0.00,,Partly Cloudy,360,2013-03-10 17:35:00
12:55 PM,23.0,17.6,80,30.16,10.0,NNW,21.9,25.3,0.00,,Mostly Cloudy,340,2013-03-10 17:55:00
1:15 PM,21.2,17.6,86,30.18,10.0,North,17.3,-,0.00,,Unknown,350,2013-03-10 18:15:00
1:35 PM,21.2,17.6,86,30.19,10.0,North,15.0,-,0.00,,Unknown,350,2013-03-10 18:35:00
1:55 PM,23.0,17.6,80,30.19,10.0,North,15.0,-,0.00,,Unknown,360,2013-03-10 18:55:00
2:15 PM,23.0,17.6,80,30.18,10.0,North,12.7,-,0.00,,Scattered Clouds,360,2013-03-10 19:15:00
2:35 PM,23.0,17.6,80,30.17,10.0,North,12.7,-,0.00,,Unknown,360,2013-03-10 19:35:00
2:55 PM,23.0,17.6,80,30.16,10.0,North,15.0,-,0.00,,Unknown,360,2013-03-10 19:55:00
3:15 PM,23.0,15.8,74,30.17,10.0,North,17.3,-,0.00,,Clear,360,2013-03-10 20:15:00
3:35 PM,23.0,17.6,80,30.16,10.0,North,20.7,-,0.00,,Unknown,360,2013-03-10 20:35:00
3:55 PM,23.0,15.8,74,30.17,10.0,North,18.4,-,0.00,,Clear,360,2013-03-10 20:55:00
4:15 PM,23.0,14.0,68,30.16,10.0,North,19.6,23.0,0.00,,Unknown,350,2013-03-10 21:15:00
4:35 PM,23.0,14.0,68,30.16,10.0,North,19.6,25.3,0.00,,Unknown,360,2013-03-10 21:35:00
4:55 PM,23.0,14.0,68,30.14,10.0,NNW,20.7,27.6,0.00,,Clear,340,2013-03-10 21:55:00
5:15 PM,23.0,14.0,68,30.14,10.0,North,20.7,24.2,0.00,,Unknown,350,2013-03-10 22:15:00
5:35 PM,23.0,14.0,68,30.13,10.0,North,19.6,-,0.00,,Unknown,350,2013-03-10 22:35:00
5:55 PM,21.2,14.0,74,30.12,10.0,North,20.7,-,0.00,,Clear,350,2013-03-10 22:55:00
6:15 PM,21.2,14.0,74,30.11,10.0,North,20.7,27.6,0.00,,Clear,350,2013-03-10 23:15:00
6:35 PM,21.2,14.0,74,30.11,10.0,North,17.3,-,0.00,,Unknown,350,2013-03-10 23:35:00
6:55 PM,21.2,14.0,74,30.11,10.0,North,16.1,-,0.00,,Clear,350,2013-03-10 23:55:00
7:15 PM,19.4,12.2,74,30.12,10.0,North,16.1,-,0.00,,Clear,350,2013-03-11 00:15:00
7:35 PM,19.4,12.2,74,30.12,10.0,North,16.1,-,0.00,,Unknown,350,2013-03-11 00:35:00
8:15 PM,17.6,12.2,79,30.13,10.0,North,15.0,-,0.00,,Clear,350,2013-03-11 01:15:00
8:35 PM,17.6,12.2,79,30.12,10.0,North,13.8,-,0.00,,Unknown,350,2013-03-11 01:35:00
8:55 PM,17.6,10.4,73,30.12,10.0,North,12.7,-,0.00,,Unknown,350,2013-03-11 01:55:00
9:15 PM,15.8,10.4,79,30.11,10.0,NNW,10.4,-,0.00,,Clear,340,2013-03-11 02:15:00
9:35 PM,14.0,10.4,86,30.11,10.0,NNW,10.4,-,0.00,,Clear,340,2013-03-11 02:35:00
9:55 PM,14.0,10.4,86,30.10,10.0,North,9.2,-,0.00,,Clear,350,2013-03-11 02:55:00
10:15 PM,12.2,8.6,85,30.10,10.0,North,8.1,-,0.00,,Unknown,350,2013-03-11 03:15:00
10:35 PM,12.2,6.8,79,30.11,10.0,NNW,4.6,-,0.00,,Clear,340,2013-03-11 03:35:00
10:55 PM,12.2,8.6,85,30.11,10.0,NNW,8.1,-,0.00,,Clear,330,2013-03-11 03:55:00
11:15 PM,12.2,8.6,85,30.10,10.0,NNW,10.4,-,0.00,,Unknown,340,2013-03-11 04:15:00
11:35 PM,10.4,5.0,79,30.11,10.0,NNW,8.1,-,0.00,,Unknown,330,2013-03-11 04:35:00
11:55 PM,10.4,6.8,85,30.10,10.0,NNW,9.2,-,0.00,,Clear,340,2013-03-11 04:55:00
12:15 AM,12.2,8.6,85,30.08,10.0,North,10.4,-,0.00,,Unknown,350,2013-03-11 05:15:00
12:35 AM,12.2,6.8,79,30.08,10.0,North,11.5,-,0.00,,Unknown,350,2013-03-11 05:35:00
12:55 AM,12.2,8.6,85,30.08,10.0,NNW,13.8,-,0.00,,Clear,340,2013-03-11 05:55:00